SBIRS GEO-5 (USA 315)

Last updated on Sat Aug 15 2026 00:03:02 GMT+0000 (Coordinated Universal Time)

1 48618U 21042A 26226.37265388 -.00000281 00000+0 00000+0 0 9996 2 48618 5.0334 329.5656 0001630 182.4689 38.7020 1.00271460 19357
UTC large
Height (km)
Speed (km/s)
/
Latitude / Longitude
Inclination (degrees)
Orbital Period (minutes)
Azimuth
Elevation
Range (km)
Doppler Factor

Next 0 passes for location: London (51.5072 / 0.1276)

No passes found over London.
SBIRS GEO-5 (USA 315)